STARLINK-4719, 53774

Orbit data source: Space-Track

STARLINK-4719, 53774 is a payload satellite owned by SpaceX/Seattle (US) in LEO that was launched on Sun, 11 Sep 2022 UTC via an FALCON 9 launch vehicle from the Air Force Eastern Test Range (AFETR). Payload-class satellites include a variety of spacecraft equipped with specific instruments for various scientific and technological missions. These include communications satellites like Starlink; space stations such as the ISS; scientific satellites like the Hubble; Earth observation satellites from companies like Planet Labs, Umbra, and HawkEye 360; GPS; miniature CubeSats for education and research; and military/defense satellites.

Loading next visibility...
Identifier
53774, 2022-111B
Orbit
LEO
Country
Flag of USUS
Related business
Manufacturer
SpaceX/Seattle
Mission
Operational Commercial Communications
Bus & Motor
STARLINK, Unknown motor
Mass
305 kg wet, ~290 kg dry
Launch date (UTC)
2022-09-11 (4 years ago)
Launch vehicle
FALCON 9
Launch site
Air Force Eastern Test Range (AFETR)
Object type
Payload
Rocket body
Debris
Shape & HBR
Box + 1 Pan, 10.1 m
Radar Cross Section
13.562 m², Large (>1 m²)

Expand to show TLE details & history
Last TLE update: 12 hours ago

TLE from 12 hours ago
0 STARLINK-4719
1 53774U 22111B   26236.28992194 -.00000679  00000-0 -10114-4 0  9991
2 53774  53.1588 245.2176 0001085  64.3276 295.7838 15.31701857219098
Epoch: 2026-08-24T06:57Z
TLE epoch observation values (Epoch: 2026-08-24T06:57:29.255Z)
Latitude
0.00002°
Longitude
168.27197°
Altitude
471.311 km
Speed
7.632 km/s
True Right ascension
16h 20m 52s
True Declination
0° 00' 00"
Sunlit
Object was in daylight at epoch
Visualization orbit readout
Latitude
Unknown
Longitude
Unknown
Altitude
Unknown
Speed
Unknown
Apparent Right ascension
Unknown
Apparent Declination
Unknown
Sunlit
N/A
Visualization observer readout
Local Sidereal Time
10:28:58
Azimuth
Unknown
Elevation
Unknown
Doppler factor
Unknown
Orbital elements
Apogee altitude
471.734 km
Perigee altitude
470.248 km
Semi-major axis
6,849.128 km
Eccentricity
0.00011
Inclination
53.1588°
RAAN
245.2176°
Arg. of periapsis
64.3276°
True anomaly
295.7726°
Mean anomaly
295.7838°
Eccentric anomaly
295.7782°
Mean motion
3.82904 °/min
Orbital period
94.02 mins
BSTAR
-0.000010114
Loading maneuver chart data...
Computing Atmospheric mass density...
Loading historical data...
Loading historical data...
Loading historical data...
Loading historical data...
Loading historical data...
Loading historical data...
Loading historical data...

Documentation

Showing up to 5 results
|